Regional Weather Roundup
Issued by NWS

Home | Current Version | Previous Version | Graphics & Text | Print | Product List | Glossary On
Versions: 1 2 3 4 5 6 7 8 9 10 11 12 13 14 15 16 17 18 19 20 21 22 23 24 25 26 27 28 29 30 31 32 33 34 35 36 37 38 39 40 41 42 43 44 45 46 47 48 49 50
000
ASUS43 KTOP 252259
RWRKS

WEATHER ROUNDUP FOR KANSAS
NATIONAL WEATHER SERVICE GOODLAND KS
600 PM CDT WED MAY 25 2016

NOTE:  "FAIR" INDICATES FEW OR NO CLOUDS BELOW 12,000 FEET WITH NO
SIGNIFICANT WEATHER AND/OR OBSTRUCTIONS TO VISIBILITY.

KSZ001>006-013>018-027>032-041>047-260000-
NORTHWEST KANSAS

CITY           SKY/WX    TMP DP  RH WIND       PRES   REMARKS
GOODLAND       SUNNY     79  44  28 MISG      29.88F
HAYS           PTSUNNY   72  64  78 NW6       29.84R
HILL CITY      CLOUDY    77  62  59 CALM      29.86S
RUSSELL        SUNNY     79  69  71 N9        29.81S
$$

KSZ061>065-074>080-084>089-260000-
SOUTHWEST KANSAS

CITY           SKY/WX    TMP DP  RH WIND       PRES   REMARKS
DODGE CITY     SUNNY     81  65  58 N13       29.85S
ELKHART          N/A     86  30  13 W8          N/A
GARDEN CITY    SUNNY     86  48  26 VRB3      29.85F
GREAT BEND     SUNNY     84  63  48 W10       29.80S
LIBERAL        SUNNY     88  36  15 SW12G17   29.86S
$$

KSZ066>073-081>083-090>101-260000-
SOUTHEAST KANSAS

CITY           SKY/WX    TMP DP  RH WIND       PRES   REMARKS
CHANUTE        PTSUNNY   82  71  69 SE12      29.86S
COFFEYVILLE    MOSUNNY   82  74  76 S14G21    29.85F
HUTCHINSON     SUNNY     90  64  42 S13       29.79S
MEDICINE LODGE   N/A     93  45  19 S9        29.79S
NEWTON         PTSUNNY   86  72  62 S13         N/A
PARSONS        PTSUNNY   83  75  77 S8        29.87F
WICHITA INTL   MOSUNNY   88  72  58 S18G25    29.79S
WICHITA JABRA  SUNNY     86  73  65 S18G29    29.80S
WINFIELD       SUNNY     86  73  65 S18G25    29.82F
$$

KSZ007>012-019>026-033>040-048>060-102>105-260000-
NORTHEAST KANSAS

CITY           SKY/WX    TMP DP  RH WIND       PRES   REMARKS
CONCORDIA      PTSUNNY   78  68  71 VRB5      29.82S
EMPORIA        CLOUDY    80  71  74 SE17      29.82F
LAWRENCE       MOSUNNY   81  67  62 S15       29.84F
MANHATTAN      CLOUDY    81  69  67 S12       29.80F
OLATHE IND     MOSUNNY   80  66  62 S13       29.87S
OLATHE EXE     PTSUNNY   78  65  63 S17G23    29.87S
SALINA         CLOUDY    87  73  62 S9        29.77F
TOPEKA BILLARD MOSUNNY   81  67  62 S14G23    29.83F
TOPEKA FORBES  MOSUNNY   82  68  62 S13       29.83F
$$




USA.gov is the U.S. government's official web portal to all federal, state and local government web resources and services.